This is the latest recevied weather packets stored in our database for station/object EA8EE-7. If no packets are shown the sender has not sent any weather packets the latest 10 day(s).
| Time | Temp. | Humidity | Pressure | Rain* | Wind** | Luminosity | Snow |
|---|---|---|---|---|---|---|---|
| 1788252794 | 34.44° C | 37% | 1022.7 hPa | - | - | - | - |
| 1788252194 | 34.44° C | 37% | 1022.9 hPa | - | - | - | - |
| 1788251282 | 35° C | 36% | 1022.3 hPa | - | - | - | - |
| 1788250082 | 35.56° C | 35% | 1023.1 hPa | - | - | - | - |
| 1788249482 | 35.56° C | 35% | 1024.6 hPa | - | - | - | - |
| 1788248449 | 36.11° C | 35% | 1023.8 hPa | - | - | - | - |
| 1788247849 | 35° C | 36% | 1027.4 hPa | - | - | - | - |
| 1788247249 | 34.44° C | 37% | 1024.6 hPa | - | - | - | - |
| 1788246649 | 34.44° C | 37% | 1025 hPa | - | - | - | - |
| 1788245459 | 33.89° C | 37% | 1026.7 hPa | - | - | - | - |
| 1788244859 | 33.89° C | 37% | 1025.7 hPa | - | - | - | - |
| 1788242897 | 33.33° C | 38% | 1022.6 hPa | - | - | - | - |
| 1788242297 | 33.33° C | 38% | 1021.7 hPa | - | - | - | - |
| 1788240531 | 33.33° C | 38% | 1020.3 hPa | - | - | - | - |
| 1788239931 | 33.33° C | 38% | 1020.3 hPa | - | - | - | - |
| 1788238730 | 33.33° C | 37% | 1021.2 hPa | - | - | - | - |
| 1788238131 | 33.89° C | 37% | 1022 hPa | - | - | - | - |
| 1788215119 | 34.44° C | 28% | 1018.6 hPa | - | - | - | - |
| 1788214519 | 34.44° C | 28% | 1023.6 hPa | - | - | - | - |
| 1788213319 | 34.44° C | 29% | 1022.8 hPa | - | - | - | - |
| 1788212719 | 34.44° C | 29% | 1020.4 hPa | - | - | - | - |
| 1788212119 | 34.44° C | 29% | 1022.3 hPa | - | - | - | - |
| 1788211519 | 34.44° C | 30% | 1021.3 hPa | - | - | - | - |
| 1788210918 | 34.44° C | 31% | 1014.9 hPa | - | - | - | - |
| 1788210319 | 34.44° C | 30% | 1022.3 hPa | - | - | - | - |
* Rain since midnight (hover to see other rain measurements)
** Current wind speed in m/s (hover to see current wind gust speed)